Location: Quedlinburg
(51.7921°N, 11.1414°E)
Time: 09:40:30
(UTC+02:00)

RS-44 - Pass Details

Date: 23 March 2026
Orbit: 1175 x 1510 km, 82.5° (Epoch: 17 April)

Event Time Altitude Azimuth Distance (km) Brightness Sun altitude
Rises 01:37:46 0° 348° (NNW) 4,452 ? -34.9°
Reaches altitude 10° 01:40:32 10° 350° (N) 3,514 ? -34.7°
Maximum altitude 01:49:04 79° 78° (ENE) 1,502 ? -34.1°
Enters shadow 01:50:17 68° 139° (SE) 1,575 ? -34.1°
